STARLINK-5949 (56019 NORAD) Tracking and Keplerian Element Data

This shows tracking and keplerian element data for the satellite.

Feedback or suggestion? Click here.




ElementValue
Catalog56019
NameSTARLINK-5949
Epoch Orbit717
Epoch Day127.00001157
Epoch Year2023
RAAN293.2006
Inclination42.9998
Eccentricity0.0001421
Argument of Perigee272.6178
Mean Anonmoly307.2997
Mean Motion15.54929008
Decay Rate-0.00925414
L11 56019U 23042AK 23127.00001157 -.00925414 00000+0 -14867-1 0 9994
L22 56019 42.9998 293.2006 0001421 272.6178 307.2997 15.54929008 7172



Live tracking and technical data element details for STARLINK-5949 (NORAD 56019). STARLINK-5949 can be tracked NOW for your location showing map with azimuth and elevation plus other details from your city location.







IsCatalogInMostPopularTable: catalog: 56019, numindb: 1
Update: records affected: 1



GetName: 56019 STARLINK-5949

Hit Count: updated at: Mon, 05 Jun 2023 01:05:05 GMT